Погода в Баодине

Китай     26°43′54″N   100°13′51″E
темп.,
°C
ветер,
м/с
пор.,
м/с
влажн.,
%
обл.,
%
осадки,
мм/ч
давл.,
гПа
погр.,
м
23 января, сб
сб2323:000з228239 0.0 101922
02:00−1зсз229020 0.0 101926
05:00−3зсз22940 0.0 101832
08:00−3зсз22951 0.0 101936
11:00+8зюз23470 0.0 1015649
14:00+13зюз25261 0.0 10111511
17:00+13ююз46310 0.0 10081537
20:00+4юз37780 0.0 1012138
24 января, вс
вс2423:00+1з22940 0.0 101538
02:000з23930 0.0 101551
05:00−2зсз33900 0.0 101659
08:00−3зсз33910 0.0 101863
11:00+7з24543 0.0 1015669
14:00+13зюз37321 0.0 10101600
17:00+14зюз411280 0.0 10072192
20:00+5з33650 0.0 101338
25 января, пн
пн2523:00+2з33725 0.0 101651
02:000з33804 0.0 101752
05:00−1зсз339112 0.0 101756
08:00−3зсз339470 0.0 101863
11:00+8з13486 0.0 1017534
14:00+14зюз372729 0.0 10111659
17:00+14юз49259 0.0 10092111
20:00+4ююз36630 0.0 1014124
26 января, вт
вт2623:00+2з23710 0.0 101758
02:000з22800 0.0 101840
05:00−2зсз22800 0.0 101742
08:00−3зсз22800 0.0 102042
11:00+8з23400 0.0 1016541
14:00+14зюз411220 0.0 10112294
17:00+14зюз716200 0.0 10083145
20:00+6юз49370 0.0 1013202
27 января, ср
ср2723:00+2зюз33550 0.0 101668
02:00−1з33620 0.0 101749
05:00−3зсз336715 0.0 101749
08:00−3зсз33798 0.0 101952
11:00+8з24340 0.0 1016607
14:00+13з382161 0.0 10102028
17:00+14зюз511170 0.0 10092899
20:00+4юз34420 0.0 101480